Location: Bathurst
(33.4193°S, 149.5775°E)
Time: 04:17:44
(UTC+10:00)

Courier 1B Rocket - Visible Passes

Search period start: 19 June 2021 00:00
Search period end: 29 June 2021 00:00
Orbit: 920 x 1202 km, 28.2° (Epoch: 17 June)

Date Brightness Start Highest point End Pass type
(mag) Time Alt. Az. Time Alt. Az. Time Alt. Az.
19 Jun 7.6 04:33:52 10° N 04:36:42 13° NNE 04:39:37 10° ENE visible
19 Jun 6.8 06:23:06 10° NW 06:29:26 35° NNE 06:36:11 10° E visible
20 Jun 7.0 05:22:52 10° NNW 05:28:28 26° NNE 05:34:24 10° E visible
21 Jun 7.2 04:23:50 12° N 04:27:36 19° NNE 04:32:17 10° ENE visible
21 Jun 6.4 06:13:55 10° NW 06:20:27 43° NNE 06:27:27 10° E visible
22 Jun 7.5 03:27:16 12° NE 03:27:16 12° NE 03:29:14 10° NE visible
22 Jun 6.5 05:13:41 11° NW 05:19:27 34° NNE 05:25:53 10° E visible
23 Jun 6.6 04:16:59 23° N 04:18:33 25° NNE 04:24:09 10° ENE visible
23 Jun 6.0 06:04:55 10° WNW 06:11:31 50° NNE 06:18:38 10° E visible
24 Jun 7.4 03:20:11 15° NE 03:20:11 15° NE 03:22:05 10° ENE visible
24 Jun 6.1 05:06:35 22° NW 05:10:30 42° NNE 05:17:10 10° E visible
25 Jun 6.2 04:09:41 33° NNE 04:09:41 33° NNE 04:15:40 10° E visible
25 Jun 5.7 05:56:05 10° WNW 06:02:39 55° N 06:09:45 10° E visible
26 Jun 7.5 03:12:42 15° ENE 03:12:42 15° ENE 03:14:01 10° ENE visible
26 Jun 5.7 04:59:05 34° NW 05:01:37 49° NNE 05:08:23 10° E visible
27 Jun 6.2 04:02:02 37° NE 04:02:02 37° NE 04:07:00 10° E visible
27 Jun 5.6 05:48:25 16° WNW 05:53:49 57° N 06:00:51 10° ENE visible
28 Jun 7.6 03:04:56 13° ENE 03:04:56 13° ENE 03:05:34 10° E visible
28 Jun 5.4 04:51:19 45° NW 04:52:47 54° N 04:59:33 10° E visible
